Location: Arpaise
(41.0333°N, 14.7333°E)
Time: 00:54:31
(UTC+00:00)

Cosmos 1633 - Pass Details

Date: 05 July 2020
Orbit: 462 x 482 km, 82.5° (Epoch: 11 August)

Event Time Altitude Azimuth Distance (km) Brightness Sun altitude
Exits shadow 23:01:06 35° 25° (NNE) 800 4.1 -26.3°
Drops below altitude 10° 23:03:20 10° 13° (NNE) 1,663 6.2 -26.3°
Sets 23:05:26 0° 11° (N) 2,545 7.5 -26.3°
